Location: Gleizolles
(44.4833°N, 6.7667°E)
Time: 20:46:51
(UTC+00:00)

Tiros 1 despin weight - Pass Details

Date: 28 June 2024
Orbit: 576 x 620 km, 48.2° (Epoch: 19 July)

Event Time Altitude Azimuth Distance (km) Brightness Sun altitude
Rises 12:17:15 0° 279° (W) 2,890 ? 67.2°
Reaches altitude 10° 12:19:37 10° 284° (WNW) 1,986 ? 67.0°
Maximum altitude 12:24:05 53° 2° (N) 768 ? 66.6°
Drops below altitude 10° 12:28:34 10° 79° (E) 1,986 ? 66.2°
Sets 12:30:56 0° 85° (E) 2,889 ? 66.0°
